DELTA 1 DEB, 40758

Orbit data source: Space-Track

DELTA 1 DEB, 40758 is space debris in SSO originally from a launch on Thu, 29 Jul 1976 UTC launched from the Air Force Western Test Range (AFWTR). Debris objects in space refer to the collection of defunct objects orbiting the Earth. Examples of debris include non-operational satellites, rocket bodies, and fragments generated from explosions, collisions, or faulty payload assembly.

Loading next visibility...
Identifier
40758, 1976-077GB
Orbit
SSO
Last TLE update
2 days ago
Origin
Manufacturer
Unknown
Mission
Spacecraft
Bus & Motor
Unknown
Mass
Unknown
Launch date (UTC)
1976-07-29 (49 years ago)
Launch vehicle
Unknown
Launch site
Air Force Western Test Range (AFWTR)
Object type
Payload
Rocket body
Debris
Shape & HBR
Unknown
Radar Cross Section
Small (<0.1 m²)

Expand to show TLE details & history

TLE from 2 days ago
0 DELTA 1 DEB
1 40758U 76077GB  25180.16823765 -.00000029  00000-0  14597-3 0  9996
2 40758 102.4716 146.8006 0089887   9.8495  16.0693 12.25460810518869
Epoch: 2025-06-29T04:02Z
TLE epoch observation values (Epoch: 2025-06-29T04:02:15.732Z)
Latitude
25.57505°
Longitude
162.69247°
Altitude
1,502.989 km
Speed
7.146 km/s
True Right ascension
09h 23m 01s
True Declination
25° 27' 15"
Sunlit
Object was in daylight at epoch
Visualization orbit readout
Latitude
-2.27158°
Longitude
-9.85687°
Altitude
1,642.922 km
Speed
7.019 km/s
Apparent Right ascension
23h 14m 36s
Apparent Declination
-20° 49' 58"
Sunlit
Object is in partial shadow
Visualization observer readout
Local Sidereal Time
13:34:04
Azimuth
67.682° E
Elevation
-54.725°
Doppler factor
1
Orbital elements
Apogee altitude
1,637.878 km
Perigee altitude
1,495.055 km
Semi-major axis
7,944.604 km
Eccentricity
0.00899
Inclination
102.4716°
RAAN
146.8006°
Arg. of periapsis
9.8495°
True anomaly
Unknown
Mean anomaly
16.0693°
Eccentric anomaly
Unknown
Mean motion
3.06503 °/min
Orbital period
117.45 mins
BSTAR
0.00014597
Loading maneuver chart data...
Loading SW <> Apogee altitude chart data...
Loading historical data...
Loading historical data...
Loading historical data...
Loading historical data...
Loading historical data...
Loading historical data...
Loading historical data...

DELTA 1 DEB Visibility forecast

Observer location: undefined°, undefined°

Span
Click to sort rows by Start time (UTC) header in descending order
Start Az.
Max El. time (UTC)
Max El. Az.
Max El.
End time (UTC)
End Az.
14 mins2025-07-01 09:27:00.808Z40.568° NE2025-07-01 09:34:00.808Z95.257° ESE26.599°2025-07-01 09:41:00.808Z151.21° SSE
16 mins2025-07-01 11:22:00.808Z11.166° NNE2025-07-01 11:30:00.808Z285.003° WNW42.063°2025-07-01 11:38:00.808Z216.615° SW
7 mins2025-07-01 13:20:00.808Z338.112° N2025-07-01 13:23:00.808Z316.263° NNW15.385°2025-07-01 13:27:00.808Z287.754° WNW
14 mins2025-07-01 20:41:00.808Z129.936° SE2025-07-01 20:47:00.808Z72.234° E37.415°2025-07-01 20:55:00.808Z352.598° N
13 mins2025-07-01 22:37:00.808Z203.742° SW2025-07-01 22:43:00.808Z263.784° W31.093°2025-07-01 22:50:00.808Z323.999° NNW
|